Location: Bonningues
(50.7927°N, 2.0150°E)
Time: 17:09:15
(UTC+00:00)

Cosmos 1703 Rocket - Pass Details

Date: 08 August 2020
Orbit: 605 x 634 km, 82.5° (Epoch: 25 September)

Event Time Altitude Azimuth Distance (km) Brightness Sun altitude
Rises 22:16:10 0° 344° (NNW) 2,895 8.5 -19.8°
Reaches altitude 10° 22:18:28 10° 338° (NNW) 1,981 7.4 -20.0°
Maximum altitude 22:22:36 43° 267° (W) 860 4.4 -20.2°
Enters shadow 22:24:13 30° 218° (SW) 1,100 4.6 -20.3°
